Location: Abraham Lincoln Continuation High School
(33.9711°N, 117.3662°W)
Time: 04:24:31
(UTC+00:00)

Cosmos 1900 - Pass Details

Date: 21 September 2020
Orbit: 679 x 743 km, 66.1° (Epoch: 25 October)

Event Time Altitude Azimuth Distance (km) Brightness Sun altitude
Rises 02:03:07 0° 333° (NNW) 3,183 8.2 -3.9°
Reaches altitude 10° 02:05:30 10° 334° (NNW) 2,258 7.4 -4.4°
Maximum altitude 02:10:41 84° 62° (ENE) 750 4.5 -5.5°
Drops below altitude 10° 02:15:49 10° 152° (SSE) 2,234 6.6 -6.6°
Sets 02:18:10 0° 153° (SSE) 3,146 7.4 -7.1°
